COSMOS 1275 DEB, 42149

Orbit data source: Space-Track

COSMOS 1275 DEB, 42149 is space debris in LEO originally from a launch on Thu, 04 Jun 1981 UTC launched from the Plesetsk Missile And Space Complex (PKMTR). Debris objects in space refer to the collection of defunct objects orbiting the Earth. Examples of debris include non-operational satellites, rocket bodies, and fragments generated from explosions, collisions, or faulty payload assembly.

Loading next visibility...
Identifier
42149, 1981-053RM
Orbit
LEO
Country
Flag of CISCIS
Related business
Manufacturer
Unknown
Mission
Spacecraft
Bus & Motor
Unknown
Mass
Unknown
Launch date (UTC)
1981-06-04 (45 years ago)
Launch vehicle
Unknown
Launch site
Plesetsk Missile And Space Complex (PKMTR)
Object type
Payload
Rocket body
Debris
Shape & HBR
Unknown shape, 0.1 m
Radar Cross Section
Small (<0.1 m²)

Expand to show TLE details & history
Last TLE update: 1 week ago

TLE from 1 week ago
0 COSMOS 1275 DEB
1 42149U 81053RM  26245.82847681  .00000967  00000-0  74517-3 0  9999
2 42149  82.8068 281.8630 0082839 324.1647  35.3976 13.90494992111353
Epoch: 2026-09-02T19:53Z
TLE epoch observation values (Epoch: 2026-09-02T19:53:00.396Z)
Latitude
0.00001°
Longitude
1.63595°
Altitude
880.647 km
Speed
7.437 km/s
True Right ascension
18h 47m 27s
True Declination
0° 00' 00"
Sunlit
Object was in full shadow at epoch
Visualization orbit readout
Latitude
Unknown
Longitude
Unknown
Altitude
Unknown
Speed
Unknown
Apparent Right ascension
Unknown
Apparent Declination
Unknown
Sunlit
N/A
Visualization observer readout
Local Sidereal Time
23:50:14
Azimuth
Unknown
Elevation
Unknown
Doppler factor
Unknown
Orbital elements
Apogee altitude
984.519 km
Perigee altitude
863.539 km
Semi-major axis
7,302.166 km
Eccentricity
0.00828
Inclination
82.8068°
RAAN
281.863°
Arg. of periapsis
324.1647°
True anomaly
35.95213°
Mean anomaly
35.3976°
Eccentric anomaly
35.6744°
Mean motion
3.47829 °/min
Orbital period
103.5 mins
BSTAR
0.00074517
Loading maneuver chart data...
Computing Atmospheric mass density...
Loading historical data...
Loading historical data...
Loading historical data...
Loading historical data...
Loading historical data...
Loading historical data...
Loading historical data...

Documentation

Showing up to 5 results
|